User: anonymous   Login
Location: Unspecified
(0.0000°N, 0.0000°E)
Time: 22:08:27
(UTC+00:00)
Language:

Milstar DFS 2 - Orbit

View from above orbital plane
View from above orbital plane
View from above satellite
View from above satellite

Ground track
Ground track

The orbit data is extracted from the following two-line orbital elements,

1 23712U 95060A   24108.43352882 -.00000023  00000-0  00000+0 0  9990
2 23712  13.7801   9.4645 0002751 355.7892 236.7977  1.00273229 23719
Epoch (UTC): 17 April 2024 10:24:16
Eccentricity: 0.0002751
inclination: 13.7801°
perigee height: 35774 km
apogee height: 35797 km
right ascension of ascending node: 9.4645°
argument of perigee: 355.7892°
revolutions per day: 1.00273229
mean anomaly at epoch: 236.7977°
orbit number at epoch: 2371

The dashed part of the orbit path shows where the satellite is in the earth's shadow,  

DLR